Location:  
MeteoStar

Sort by weather type Sort by elevation Sort by visibility Sort from west to east north Sort from north to south Alphabetically Sort from strongest wind speed Sort from lowest to highest pressure Sort from highest to lowest dew point temperature Sort coolest temperatures to warmest Sort warm temperatures to coolest
 Metric

Current Observations for United Kingdom sorted by wind speed

Cairngorm20:00ZNot Avail.39 N/A25SW 41 Gusting to 55 4084
Great Dun Fell20:00ZNot Avail.45 455SW 33 Gusting to 40 352778
Cairnwell20:00ZNot Avail.41 N/A25SW 24 Gusting to 32 3061
Pembrey Sands19:50ZMostly Cloudy55 5571015.1SSW 23 559
Lerwick20:00ZCloudy53 47131002.0SSW 22 Gusting to 31 47269
Scatsa / Shetland Island19:50ZClear54 50301001.1SSW 22 4972
Aberdaron20:00ZNot Avail.55 550.181013.7SSW 20 Gusting to 27 55311
Valley19:50ZRain55 5521012.1S 20 553
Fair Isle20:00ZNot Avail.53 5071003.2S 19 Gusting to 30 48187
Inverness / Dalcross19:50ZNot Avail.52 48301005.1SW 19 4629
Sumburgh Cape 19:50ZClear54 50121003.1SSW 19 4916
Baltasound20:00ZNot Avail.53 49101001.4SSW 18 Gusting to 27 4849
Dundrennan20:00ZNot Avail.55 5461010.0SW 17 55374
Inverbervie20:00ZNot Avail.51 5171007.9SSW 17 45439
Sule Skerry20:00ZNot Avail.53 4771001.5SW 17 Gusting to 32 4852
Mumbles20:00ZNot Avail.56 541.51016.2S 16 56114
Saint Bees Head20:00ZNot Avail.55 5561011.5SW 16 Gusting to 26 55406
South Uist Range20:00ZClear51 4961003.7SW 16 Gusting to 28 4632
Aberporth20:00ZNot Avail.54 5371013.9S 16 50436
Benbecula19:50ZMostly Cloudy50 46301003.1WSW 16 4419
Milford Haven20:00ZNot Avail.56 561.51014.2SSW 15 56144
Fylingdales20:00ZNot Avail.55 5412SSW 15 55859
Machrihanish20:00ZNot Avail.56 49121008.2SSW 15 5642
Scilly; Saint MaryS20:00ZRain/Drizzle57 571.621015.9SSW 15 57101
Saint Catherines Point20:00ZNot Avail.59 52191017.7W 14 5952
Eskdalemuir20:00ZClear53 5291010.2SSW 14 49793
Tulloch Bridge20:00ZLight Showers52 4791007SSW 14 47777
Loch Glascanoch20:00ZClear51 47201004.5WSW 14 Gusting to 30 46869
Isle Of Portland20:00ZNot Avail.57 52191017.5WSW 13 57173
Loftus Samos20:00ZNot Avail.56 53121012.2SSW 13 56190
Drumalbin20:00ZNot Avail.50 4741009.5SSW 13 45803
Aultbea20:00ZClear52 4991004S 13 4836
Glen Ogle20:00ZNot Avail.48 4520SSW 12 Gusting to 32 431850
Tiree19:50ZClear52 5071006.1SW 12 4839
London / Heathrow Airport19:50ZMostly Cloudy59 52301017.1SW 12 5978
Plymouth20:00ZNot Avail.56 5391017.2SSW 12 56164
Camborne20:00ZRain/Drizzle56 5521016.4SSW 11 56285
Little Rissington20:00ZNot Avail.53 52161015.9SW 11 49705
Capel Curig20:00ZLight Drizzle52 511.51013.7WSW 11 48708
Bridlington Mrsc20:00ZNot Avail.58 56121013SSW 11 5849
Shap20:00ZNot Avail.52 501.621012.2S 11 48816
Waddington19:50ZHaze57 5561014.1SSW 11 57223
Northolt19:50ZMostly Cloudy59 54201017.1WSW 11 59124
Wick19:50ZPartly Cloudy54 48121003.1SSW 11 51127
Kirkwall Airport19:50ZMostly Cloudy52 48121003.1S 11 4868
Isle Of Man / Ronaldsway Airport19:50ZMostly Cloudy55 5591011.1WSW 11 5555
Humberside19:50ZClear57 5761013.1SSW 11 57101
Luton Airport 19:50ZCloudy57 5591016.1SSW 11 57524
Liverpool Airport 19:50ZCloudy57 5091013.1S 11 5785
Culdrose19:50ZLight Rain55 551.251016.1SW 11 55255
Saint Helena Island19:50ZNot Avail.61 5691020.4ESE 10 611427
Ballypatrick Forest20:00ZNot Avail.53 4891008.9WSW 10 50511
Castlederg20:00ZLight Showers53 5141008.7SW 10 50167
Spadeadam20:00ZDrizzle51 511.371010.9SSW 10 47935
Topcliffe Royal Air Force Base 19:50ZMostly Cloudy59 5261013.1SSW 10 5991
Kinloss19:50ZClear54 46351004.1S 10 5122
Stornoway19:50ZClear50 4671002.1SSW 10 4629
Edinburgh Airport19:50ZNot Avail.52 50301009.1SSW 10 49134
Spadeadam19:50ZDrizzle50 501.371010.2SSW 10 461066
Leeds And Bradford19:50ZPartly Cloudy55 5071013.1SW 10 55682
Walney Island20:00ZRain/Drizzle55 5471012.2S 10 5549
Kenley20:00ZNot Avail.57 53251017.7SW 9 57557
Sennybridge20:00ZNot Avail.51 49251015.5SSW 9 481007
Bingley20:00ZNot Avail.54 50251013.4SSW 9 51859
Crosby20:00ZClear56 5341013.0S 9 5626
Strathallan20:00ZNot Avail.52 49201008.2SW 9 49114
Marham19:50ZMostly Cloudy59 5571015.1S 9 5975
Holbeach19:50ZMostly Cloudy59 5731015.1SSW 9 599
Cranwell19:50ZPartly Cloudy57 5531014.1S 9 57219
Stansted Airport19:50ZCloudy59 55201016.1S 9 59347
Lossiemouth19:50ZClear52 45201005.1WSW 9 4942
Shawbury19:50ZMostly Cloudy55 48101014.1SSW 9 55249
Newcastle 19:50ZClear55 4891011.1SSW 9 55265
Blackpool Airport19:50ZLight Drizzle55 5461013.1S 9 5532
Southend-On-Sea 19:50ZNot Avail.57 54301017.1SSW 9 5749
Lough Fea20:00ZFog50 4861009.5S 8 47738
Dunkeswell Aerodrome20:00ZNot Avail.49 4981017.2SSW 8 46826
Bedford20:00ZNot Avail.58 56121015.7SSW 8 58278
Trawscoed20:00ZClear55 5171014.4S 8 55206
Rhyl20:00ZNot Avail.55 50301013.0S 8 55252
Warcop Range20:00ZMist51 5051012.4S 8 48744
Wainfleet20:00ZNot Avail.58 572.251014.7SSW 8 589
Leconfield19:50ZHaze59 5551013.1SSW 8 5919
Wittering19:50ZMist57 5541014.1SSW 8 57275
Leeming19:50ZMostly Cloudy57 52301012.1S 8 57131
Odiham19:50ZMostly Cloudy57 50251017.1SW 8 57403
Lakenheath Royal Air Force Base19:56ZPartly Cloudy60 5471015.5S 8 6032
Boulmer19:50ZMostly Cloudy55 50201010.1SSW 8 5575
Leuchars19:50ZClear52 48251008.1SW 8 4939
Glasgow Airport19:50ZMostly Cloudy52 50301009.1S 8 4926
East Midlands19:50ZNot Avail.55 5491014.1SSW 8 55308
London City Airport19:50ZCloudy63 57151017.1SSW 8 6316
Biggin Hill 19:50ZMostly Cloudy57 54151017.0SSW 8 57600
Eglinton / Londonderr19:50ZPartly Cloudy55 5091008.1SSW 8 5529
Glenanne20:00ZNot Avail.49 4791010.2SW 7 46528
Cardinham20:00ZLight Drizzle53 522.751016.5SSW 7 51656
Liscombe20:00ZNot Avail.49 N/A101016.9SSW 7 1141
Nottingham Weather Centre20:00ZMist56 5531014.7SW 7 56383
Aboyne20:00ZNot Avail.53 44251006.5SW 7 51459
Coningsby Royal Air Force Base19:50ZMist57 5741014.1S 7 5722
Wattisham19:50ZNot Avail.57 54201016.1SSW 7 57285
Mildenhall Royal Air Force Base19:46ZMostly Cloudy59 5981015.5S 7 5932
Lydd Airport 19:50ZMostly Cloudy59 57301018.1WSW 7 599
Farnborough19:50ZMostly Cloudy57 52201017.1SSW 7 57213
London / Gatwick Airport19:50ZMostly Cloudy59 54151017.1SW 7 59203
Portglenone20:00ZNot Avail.52 4871009S 6 50209
Thorney Island20:00ZNot Avail.58 53301017.7W 6 5813
Shoeburyness20:00ZNot Avail.58 5671017.4WSW 6 586
Weybourne20:00ZClear59 5931015.5S 6 5968
Donna Nook20:00ZNot Avail.58 5641014.2S 6 5826
Redesdale20:00ZNot Avail.52 5131010.9SSW 6 50692
Charterhall20:00ZClear53 5281009.5SSW 6 51367
Aviemore20:00ZNot Avail.51 45251005.7SSW 6 49721
Altnaharra20:00ZNot Avail.50 45301003.4S 6 48265
Fairford Royal Air Force Base19:36ZCloudy55 52201016.0SW 6 55285
Benson19:50ZMostly Cloudy55 52151016.1S 6 55206
Exeter Airport19:50ZClear54 52201017.1S 6 5298
Norwich Weather Centre19:50ZNot Avail.59 55201016.1SSW 6 5945
West Freugh20:00ZNot Avail.52 5181010.2S 6 5036
Tees-Side19:50ZPartly Cloudy57 5291012.1SW 6 57121
Hawarden19:50ZMostly Cloudy57 50201014.1S 6 5732
Shoreham Airport20:00ZNot Avail.58 56151018SW 6 586
Boscombe Down19:50ZMostly Cloudy54 52191017.1S 6 52406
Manchester Airport19:50ZCloudy55 5031014.1SSW 6 55226
Belfast / Harbour20:20ZNot Avail.52 4691010.1SSW 6 5016
Belfast / Aldergrove Airport19:50ZNot Avail.52 4691010.2SSW 6 50265
Langdon Bay20:00ZNot Avail.57 55251018.0WSW 5 57383
Shobdon20:00ZNot Avail.53 49201015.5WSW 5 52324
Prestwick Rnas20:00ZNot Avail.52 49141009.0SSE 5 5185
Linton-On-Ouse19:50ZMostly Cloudy57 52121013.1S 5 5752
Middle Wallop19:50ZMostly Cloudy54 50151017.1SSW 5 53298
Manston20:00ZNot Avail.56 5381017.7S 5 56180
Prestwick Airport19:50ZClear52 50301009.1SSE 5 5165
Aberdeen / Dyce19:50ZNot Avail.52 48301007.1ESE 5 51213
Guernsey Airport19:50ZClear54 52251018.1SW 5 53334
Bristol / Lulsgate 19:50ZMostly Cloudy52 5291016.1SSW 5 51620
High Wicombe Hqstc20:00ZNot Avail.54 52161016.9SSW 4 53669
Church Lawford20:00ZNot Avail.55 53131015.5SW 4 55351
Pershore20:00ZNot Avail.54 52161016.2SSW 4 53104
Southampton / Weather Centre19:50ZClear55 50121017.1SSW 4 5529
Bournemouth Airport19:50ZMostly Cloudy55 54121017.1WSW 4 5536
Cardiff-Wales Airport19:50ZClear55 5291016.1SW 4 55219
Yeovilton19:50ZPartly Cloudy54 5091017.1SSW 4 5375
St Athan Royal Air Force Base19:50ZMostly Cloudy55 501.251016.1SW 4 55164
Lyneham20:00ZNot Avail.54 51301016.5SSW 4 53475
Birmingham / Airport19:50ZClear54 5291015.1S 4 53324
Herstmonceux20:00ZMist58 5641018.2WSW 3 58170
Larkhill20:00ZNot Avail.54 51171017.0SSW 3 54433
Brize Norton19:50ZMostly Cloudy55 52201016.1SW 3 55288
Chivenor20:00ZNot Avail.55 52301016.4S 3 5526
Keswick20:00ZRain54 5331011.5NE 2 54265
Tain Range20:00ZNot Avail.50 45301004.2W 2 5013
Jersey Airport19:50ZPartly Cloudy55 52151019.1WNW 2 55275


Atlantic
Tropical Watch